• In Netherlands
  • List of Countries
  • For 7 days
  • Water Temperature
  • Satellite Maps
  • Weather Map
  • Weather Widgets
  • user-avatar
    Login

    Hourly Weather Herāt

    Today, 17 January, Wednesday

    Time Temperature Precipitation Wind Pressure Humidity
    00:00 -2°C° 0 mm 3 mps 680 mmHg 67%
    01:00 -2°C° 0 mm 2 mps 680 mmHg 68%
    02:00 -2°C° 0 mm 2 mps 680 mmHg 68%
    03:00 -2°C° 0 mm 2 mps 680 mmHg 68%
    04:00 -2°C° 0 mm 2 mps 679 mmHg 65%
    05:00 -2°C° 0 mm 2 mps 679 mmHg 64%
    06:00 -2°C° 0 mm 2 mps 679 mmHg 63%
    07:00 -2°C° 0 mm 2 mps 679 mmHg 62%
    08:00 +2°C° 0 mm 1 mps 680 mmHg 53%
    09:00 +4°C° 0 mm 1 mps 680 mmHg 44%
    10:00 +6°C° 0 mm 1 mps 680 mmHg 35%
    11:00 +7°C° 0 mm 1 mps 680 mmHg 32%
    12:00 +7°C° 0 mm 2 mps 680 mmHg 28%
    13:00 +8°C° 0 mm 2 mps 679 mmHg 25%
    14:00 +8°C° 0 mm 2 mps 679 mmHg 25%
    15:00 +8°C° 0 mm 2 mps 679 mmHg 25%
    16:00 +8°C° 0 mm 2 mps 679 mmHg 25%
    17:00 +7°C° 0 mm 2 mps 679 mmHg 28%
    18:00 +7°C° 0 mm 1 mps 679 mmHg 31%
    19:00 +6°C° 0 mm 1 mps 679 mmHg 33%
    20:00 +6°C° 0 mm 1 mps 679 mmHg 33%
    21:00 +5°C° 0 mm 2 mps 679 mmHg 32%
    22:00 +5°C° 0 mm 2 mps 679 mmHg 31%
    23:00 +5°C° 0 mm 2 mps 679 mmHg 29%

    Tomorrow, 18 January, Thursday

    Time Temperature Precipitation Wind Pressure Humidity
    00:00 +5°C° 0 mm 2 mps 679 mmHg 28%
    01:00 +5°C° 0 mm 2 mps 679 mmHg 27%
    02:00 +5°C° 0 mm 2 mps 678 mmHg 27%
    03:00 +5°C° 0 mm 2 mps 678 mmHg 26%
    04:00 +4°C° 0 mm 2 mps 678 mmHg 26%
    05:00 +4°C° 0 mm 2 mps 678 mmHg 26%
    06:00 +4°C° 0 mm 2 mps 678 mmHg 26%
    07:00 +4°C° 0 mm 2 mps 678 mmHg 26%
    08:00 +6°C° 0 mm 2 mps 679 mmHg 22%
    09:00 +9°C° 0 mm 3 mps 679 mmHg 18%
    10:00 +11°C° 0 mm 3 mps 679 mmHg 15%
    11:00 +12°C° 0 mm 4 mps 679 mmHg 14%
    12:00 +13°C° 0 mm 5 mps 679 mmHg 13%
    13:00 +15°C° 0 mm 7 mps 678 mmHg 13%
    14:00 +14°C° 0 mm 7 mps 678 mmHg 13%
    15:00 +14°C° 0 mm 6 mps 678 mmHg 14%
    16:00 +14°C° 0 mm 6 mps 678 mmHg 15%
    17:00 +13°C° 0 mm 5 mps 678 mmHg 17%
    18:00 +11°C° 0 mm 3 mps 678 mmHg 19%
    19:00 +10°C° 0 mm 2 mps 678 mmHg 21%
    20:00 +9°C° 0 mm 2 mps 677 mmHg 21%
    21:00 +9°C° 0 mm 2 mps 677 mmHg 22%
    22:00 +8°C° 0 mm 2 mps 677 mmHg 22%
    23:00 +8°C° 0 mm 2 mps 677 mmHg 22%

    Day after tomorrow, 19 January, Friday

    Time Temperature Precipitation Wind Pressure Humidity
    00:00 +8°C° 0 mm 2 mps 678 mmHg 22%
    01:00 +7°C° 0 mm 3 mps 678 mmHg 22%
    02:00 +7°C° 0 mm 3 mps 678 mmHg 22%
    03:00 +7°C° 0 mm 3 mps 677 mmHg 21%
    04:00 +7°C° 0 mm 3 mps 677 mmHg 21%
    05:00 +7°C° 0 mm 3 mps 678 mmHg 21%
    06:00 +7°C° 0 mm 3 mps 678 mmHg 22%
    07:00 +5°C° 0 mm 4 mps 678 mmHg 22%
    08:00 +8°C° 0 mm 4 mps 679 mmHg 19%
    09:00 +11°C° 0 mm 4 mps 680 mmHg 17%
    10:00 +13°C° 0 mm 5 mps 681 mmHg 15%
    11:00 +14°C° 0 mm 5 mps 681 mmHg 14%
    12:00 +15°C° 0 mm 6 mps 680 mmHg 13%
    13:00 +17°C° 0 mm 6 mps 680 mmHg 12%
    14:00 +16°C° 0 mm 6 mps 680 mmHg 13%
    15:00 +16°C° 0 mm 6 mps 680 mmHg 13%
    16:00 +16°C° 0 mm 5 mps 680 mmHg 13%
    17:00 +15°C° 0 mm 5 mps 680 mmHg 15%
    18:00 +13°C° 0 mm 4 mps 680 mmHg 17%
    19:00 +12°C° 0 mm 4 mps 680 mmHg 19%
    20:00 +11°C° 0 mm 4 mps 680 mmHg 20%
    21:00 +11°C° 0 mm 4 mps 680 mmHg 21%
    22:00 +10°C° 0 mm 4 mps 680 mmHg 21%
    23:00 +10°C° 0 mm 4 mps 679 mmHg 22%

    20 January, Saturday

    Time Temperature Precipitation Wind Pressure Humidity
    00:00 +8°C° 0 mm 4 mps 679 mmHg 22%
    01:00 +9°C° 0 mm 3 mps 679 mmHg 23%
    02:00 +9°C° 0 mm 3 mps 679 mmHg 23%
    03:00 +8°C° 0 mm 4 mps 679 mmHg 23%
    04:00 +7°C° 0 mm 4 mps 679 mmHg 24%
    05:00 +7°C° 0 mm 4 mps 679 mmHg 24%
    06:00 +7°C° 0 mm 4 mps 679 mmHg 24%
    07:00 +7°C° 0 mm 4 mps 679 mmHg 24%
    08:00 +10°C° 0 mm 4 mps 679 mmHg 22%
    09:00 +13°C° 0 mm 5 mps 680 mmHg 20%
    10:00 +15°C° 0 mm 6 mps 680 mmHg 17%
    11:00 +16°C° 0 mm 6 mps 680 mmHg 16%
    12:00 +17°C° 0 mm 7 mps 679 mmHg 16%
    13:00 +18°C° 0 mm 8 mps 679 mmHg 15%
    14:00 +18°C° 0 mm 8 mps 678 mmHg 16%
    15:00 +18°C° 0 mm 7 mps 678 mmHg 17%
    16:00 +17°C° 0 mm 7 mps 677 mmHg 18%
    17:00 +16°C° 0 mm 6 mps 677 mmHg 21%
    18:00 +14°C° 0 mm 5 mps 677 mmHg 23%
    19:00 +13°C° 0 mm 4 mps 677 mmHg 26%
    20:00 +12°C° 0 mm 4 mps 677 mmHg 27%
    21:00 +12°C° 0 mm 4 mps 677 mmHg 28%
    22:00 +11°C° 0 mm 4 mps 677 mmHg 29%
    23:00 +11°C° 0 mm 4 mps 677 mmHg 29%

    21 January, Sunday

    Time Temperature Precipitation Wind Pressure Humidity
    00:00 +11°C° 0 mm 4 mps 676 mmHg 28%
    01:00 +10°C° 0 mm 4 mps 676 mmHg 28%
    02:00 +10°C° 0 mm 4 mps 676 mmHg 28%
    03:00 +10°C° 0 mm 4 mps 676 mmHg 28%
    04:00 +10°C° 0 mm 4 mps 676 mmHg 27%
    05:00 +8°C° 0 mm 4 mps 676 mmHg 28%
    06:00 +8°C° 0 mm 4 mps 676 mmHg 29%
    07:00 +7°C° 0 mm 4 mps 677 mmHg 30%
    08:00 +10°C° 0 mm 3 mps 677 mmHg 28%
    09:00 +11°C° 0 mm 3 mps 678 mmHg 27%
    10:00 +12°C° 0 mm 3 mps 678 mmHg 25%
    11:00 +13°C° 0 mm 3 mps 678 mmHg 25%
    12:00 +14°C° 0 mm 4 mps 677 mmHg 25%
    13:00 +14°C° 0 mm 4 mps 677 mmHg 25%
    14:00 +14°C° 0 mm 5 mps 677 mmHg 29%
    15:00 +13°C° 0 mm 6 mps 676 mmHg 32%
    16:00 +11°C° 0 mm 7 mps 676 mmHg 35%
    17:00 +10°C° 0 mm 7 mps 676 mmHg 42%
    18:00 +8°C° 0 mm 7 mps 676 mmHg 49%
    19:00 +6°C° 0 mm 7 mps 676 mmHg 55%
    20:00 +5°C° 0 mm 7 mps 676 mmHg 59%
    21:00 +5°C° 0 mm 7 mps 676 mmHg 62%
    22:00 +4°C° 0 mm 8 mps 676 mmHg 65%
    23:00 +4°C° 0.1 mm 8 mps 676 mmHg 67%

    22 January, Monday

    Time Temperature Precipitation Wind Pressure Humidity
    00:00 +4°C° 0.1 mm 8 mps 676 mmHg 68%
    01:00 +2°C° 0.1 mm 8 mps 676 mmHg 69%
    02:00 +2°C° 0.2 mm 8 mps 676 mmHg 70%
    03:00 +2°C° 0.2 mm 9 mps 676 mmHg 71%
    04:00 +2°C° 0.2 mm 9 mps 676 mmHg 72%
    05:00 +1°C° 0.2 mm 9 mps 677 mmHg 72%
    06:00 +1°C° 0.2 mm 9 mps 677 mmHg 72%
    07:00 +1°C° 0.2 mm 9 mps 677 mmHg 72%
    08:00 +1°C° 0 mm 8 mps 678 mmHg 69%
    09:00 +2°C° 0 mm 8 mps 679 mmHg 66%
    10:00 +2°C° 0 mm 8 mps 679 mmHg 63%
    11:00 +4°C° 0 mm 8 mps 679 mmHg 60%
    12:00 +5°C° 0 mm 7 mps 678 mmHg 57%
    13:00 +5°C° 0 mm 7 mps 678 mmHg 55%
    14:00 +5°C° 0 mm 7 mps 678 mmHg 56%
    15:00 +5°C° 0 mm 6 mps 678 mmHg 57%
    16:00 +5°C° 0 mm 6 mps 678 mmHg 58%
    17:00 +5°C° 0 mm 5 mps 678 mmHg 62%
    18:00 +4°C° 0 mm 4 mps 678 mmHg 66%
    19:00 +3°C° 0 mm 3 mps 679 mmHg 71%
    20:00 +3°C° 0 mm 3 mps 679 mmHg 71%
    21:00 +4°C° 0 mm 2 mps 679 mmHg 72%
    22:00 +3°C° 0 mm 2 mps 679 mmHg 72%
    23:00 +4°C° 0 mm 1 mps 678 mmHg 73%
    Show more